Mullan Pass, ID

9:15 PM PDT on April 29, 2017 (GMT -0700)
Mullan Pass

Weather History for KMLP - February, 2012

Change the Weather History Date:

Saturday, February 18, 2012

  Actual Average (K3TH) Record (K3TH)
Temperature  
Mean Temperature 24 °F -  
Max Temperature 28 °F 37 °F 50 °F (1998)
Min Temperature 19 °F 26 °F 21 °F (2000)
Degree Days  
Heating Degree Days 42    
Moisture  
Dew Point 20 °F    
Average Humidity 90    
Maximum Humidity 100    
Minimum Humidity 80    
Precipitation  
Precipitation 0.43 in - - ()
Sea Level Pressure  
Sea Level Pressure 29.84 in    
Wind  
Wind Speed 7 mph (SW)    
Max Wind Speed 13 mph    
Max Gust Speed 26 mph    
Visibility 2 miles    
Events Fog , Snow    
Averages and records for this station are not official NWS values.
T = Trace of Precipitation, MM = Missing Value Source: NWS Daily Summary

Daily Weather History Graph

Daily Weather History Graph

Search for Another Location

Airport or City:

Trip Planner

Search our weather history database for the weather conditions in past years. The results will help you decide how hot, cold, wet, or windy it might be!

Date:

Astronomy

Feb. 18, 2012 Rise Set
Actual Time 6:43 AM PST 5:10 PM PST
Civil Twilight 6:12 AM PST 5:41 PM PST
Nautical Twilight 5:36 AM PST 6:17 PM PST
Astronomical Twilight 5:01 AM PST 6:53 PM PST
Moon 4:36 AM PST (2/18) 2:02 PM PST (2/18)
Length of Visible Light 11h 29m
Length of Day
10h 26m
Waning Crescent, 10% of the Moon is Illuminated
Feb 18
Waning Crescent
Feb 21
New
Feb 29
First Quarter
Mar 8
Full
Mar 14
Last Quarter

Hourly Weather History & Observations

Time (PST) Temp. Windchill Dew Point Humidity Pressure Visibility Wind Dir Wind Speed Gust Speed Precip Events Conditions
12:07 AM 26.6 °F 21.2 °F 24.8 °F 93% 29.80 in 0.2 mi Variable 4.6 mph 16.1 mph 0.01 in Fog , Snow Snow
12:53 AM 27.0 °F 19.5 °F 26.1 °F 96% 29.87 in 0.2 mi Variable 6.9 mph - 0.05 in Fog , Snow Light Snow
1:36 AM 26.6 °F 18.2 °F 24.8 °F 93% 29.78 in 0.5 mi South 8.1 mph - 0.03 in Fog , Snow Light Snow
1:53 AM 28.0 °F 18.1 °F 26.1 °F 92% 29.87 in 0.8 mi SSW 11.5 mph 26.5 mph 0.05 in Snow Light Snow
2:04 AM 28.4 °F 18.5 °F 26.6 °F 93% 29.78 in 1.2 mi SSW 11.5 mph 23.0 mph 0.00 in Snow Light Snow
2:16 AM 28.4 °F 18.0 °F 26.6 °F 93% 29.78 in 0.5 mi SW 12.7 mph 24.2 mph 0.01 in Fog , Snow Snow
2:53 AM 27.0 °F 20.5 °F 25.0 °F 92% 29.88 in 0.5 mi Variable 5.8 mph - 0.04 in Fog , Snow Snow
3:53 AM 26.1 °F 19.4 °F 23.0 °F 88% 29.89 in 0.5 mi Variable 5.8 mph - 0.05 in Fog , Snow Snow
4:53 AM 25.0 °F 19.3 °F 23.0 °F 92% 29.90 in 0.5 mi Variable 4.6 mph - 0.02 in Fog , Snow Snow
5:14 AM 24.8 °F 17.9 °F 21.2 °F 86% 29.79 in 1.2 mi Variable 5.8 mph - 0.01 in Snow Light Snow
5:30 AM 24.8 °F 16.9 °F 21.2 °F 86% 29.80 in 0.8 mi WSW 6.9 mph - 0.02 in Snow Light Snow
5:38 AM 24.8 °F 16.1 °F 21.2 °F 86% 29.80 in 1.0 mi SSW 8.1 mph - 0.02 in Snow Light Snow
5:53 AM 24.1 °F 16.0 °F 21.0 °F 88% 29.91 in 1.2 mi Variable 6.9 mph 17.3 mph 0.02 in Snow Light Snow
6:10 AM 24.8 °F 17.9 °F 21.2 °F 86% 29.81 in 1.5 mi Variable 5.8 mph - 0.01 in Snow Light Snow
6:22 AM 24.8 °F 16.1 °F 21.2 °F 86% 29.81 in 1.2 mi WSW 8.1 mph - 0.01 in Snow Light Snow
6:27 AM 24.8 °F 16.9 °F 21.2 °F 86% 29.81 in 1.5 mi SW 6.9 mph - 0.01 in Snow Light Snow
6:42 AM 24.8 °F 15.3 °F 19.4 °F 80% 29.81 in 1.2 mi SSW 9.2 mph 23.0 mph 0.01 in Snow Light Snow
6:51 AM 23.0 °F 13.9 °F 19.4 °F 86% 29.81 in 1.5 mi SW 8.1 mph 18.4 mph 0.01 in Snow Light Snow
6:53 AM 23.0 °F 13.9 °F 19.9 °F 88% 29.93 in 1.8 mi SW 8.1 mph 18.4 mph 0.01 in Snow Light Snow
7:01 AM 23.0 °F 13.1 °F 19.4 °F 86% 29.81 in 0.8 mi SW 9.2 mph - 0.01 in Snow Light Snow
7:19 AM 23.0 °F 13.1 °F 19.4 °F 86% 29.82 in 0.8 mi SW 9.2 mph 16.1 mph 0.01 in Snow Light Snow
7:31 AM 23.0 °F 12.4 °F 19.4 °F 86% 29.83 in 0.8 mi WSW 10.4 mph 19.6 mph 0.02 in Snow Light Snow
7:36 AM 21.2 °F 10.9 °F 19.4 °F 93% 29.83 in 1.5 mi SW 9.2 mph 19.6 mph 0.02 in Snow Light Snow
7:38 AM 21.2 °F 10.1 °F 19.4 °F 93% 29.83 in 3.0 mi SW 10.4 mph 21.9 mph 0.02 in Snow Light Snow
7:53 AM 21.9 °F 17.2 °F 19.9 °F 92% 29.96 in 2.0 mi Variable 3.5 mph - 0.02 in Snow Light Snow
7:56 AM 21.2 °F 13.6 °F 19.4 °F 93% 29.83 in 1.5 mi Variable 5.8 mph - 0.00 in Snow Light Snow
8:00 AM 21.2 °F 13.6 °F 19.4 °F 93% 29.83 in 0.8 mi Variable 5.8 mph - 0.00 in Snow Light Snow
8:13 AM 23.0 °F - 19.4 °F 86% 29.84 in 0.2 mi Calm Calm - 0.01 in Fog , Snow Snow
8:20 AM 23.0 °F 13.1 °F 19.4 °F 86% 29.84 in 0.5 mi SW 9.2 mph - 0.01 in Fog , Snow Snow
8:44 AM 23.0 °F 17.0 °F 19.4 °F 86% 29.84 in 1.5 mi Variable 4.6 mph - 0.01 in Snow Light Snow
8:53 AM 23.0 °F 13.9 °F 19.9 °F 88% 29.96 in 1.2 mi WSW 8.1 mph - 0.01 in Snow Light Snow
8:58 AM 23.0 °F 15.8 °F 19.4 °F 86% 29.83 in 2.0 mi Variable 5.8 mph - 0.00 in Snow Light Snow
9:22 AM 21.2 °F 12.6 °F 19.4 °F 93% 29.84 in 4.0 mi Variable 6.9 mph 26.5 mph 0.00 in Snow Light Snow
9:45 AM 24.8 °F 19.1 °F 21.2 °F 86% 29.83 in 1.8 mi Variable 4.6 mph - 0.01 in Snow Light Snow
9:48 AM 24.8 °F 19.1 °F 21.2 °F 86% 29.83 in 0.8 mi Variable 4.6 mph - 0.01 in Snow Light Snow
9:53 AM 24.1 °F 18.2 °F 19.9 °F 84% 29.95 in 0.5 mi Variable 4.6 mph 19.6 mph 0.01 in Fog , Snow Snow
10:07 AM 24.8 °F 17.9 °F 21.2 °F 86% 29.83 in 1.2 mi Variable 5.8 mph - 0.01 in Snow Light Snow
10:10 AM 24.8 °F 19.1 °F 19.4 °F 80% 29.83 in 1.5 mi Variable 4.6 mph - 0.01 in Snow Light Snow
10:15 AM 24.8 °F 16.9 °F 21.2 °F 86% 29.83 in 3.0 mi Variable 6.9 mph - 0.01 in Snow Light Snow
10:26 AM 23.0 °F 14.7 °F 19.4 °F 86% 29.83 in 3.0 mi Variable 6.9 mph - 0.01 in   Overcast
10:39 AM 23.0 °F 13.1 °F 19.4 °F 86% 29.83 in 1.8 mi WSW 9.2 mph - 0.01 in Snow Light Snow
10:44 AM 21.2 °F 10.9 °F 19.4 °F 93% 29.83 in 0.8 mi WSW 9.2 mph 20.7 mph 0.01 in Snow Light Snow
10:53 AM 21.9 °F 12.5 °F 19.0 °F 89% 29.96 in 1.2 mi WSW 8.1 mph 20.7 mph 0.01 in Snow Light Snow
11:19 AM 23.0 °F 13.9 °F 19.4 °F 86% 29.83 in 0.8 mi SW 8.1 mph 18.4 mph 0.00 in Snow Light Snow
11:35 AM 24.8 °F 19.1 °F 21.2 °F 86% 29.83 in 1.0 mi Variable 4.6 mph - 0.00 in Snow Light Snow
11:49 AM 24.8 °F 20.5 °F 21.2 °F 86% 29.83 in 2.0 mi Variable 3.5 mph - 0.01 in Snow Light Snow
11:53 AM 24.1 °F 16.0 °F 21.0 °F 88% 29.94 in 4.0 mi Variable 6.9 mph - 0.01 in Snow Light Snow
12:09 PM 24.8 °F 16.1 °F 21.2 °F 86% 29.82 in 2.0 mi WSW 8.1 mph - 0.00 in Snow Light Snow
12:15 PM 24.8 °F 17.9 °F 21.2 °F 86% 29.82 in 1.8 mi West 5.8 mph - 0.00 in Snow Light Snow
12:19 PM 24.8 °F 17.9 °F 21.2 °F 86% 29.82 in 1.2 mi Variable 5.8 mph - 0.00 in Snow Light Snow
12:30 PM 24.8 °F 19.1 °F 21.2 °F 86% 29.82 in 0.5 mi WSW 4.6 mph - 0.00 in Fog , Snow Snow
12:41 PM 23.0 °F 17.0 °F 21.2 °F 93% 29.82 in 0.2 mi Variable 4.6 mph - 0.01 in Fog , Snow Snow
12:53 PM 23.0 °F 11.1 °F 19.9 °F 88% 29.93 in 1.0 mi SW 12.7 mph 19.6 mph 0.02 in Snow Light Snow
12:57 PM 23.0 °F 13.9 °F 19.4 °F 86% 29.81 in 2.5 mi SW 8.1 mph 19.6 mph 0.00 in Snow Light Snow
1:04 PM 23.0 °F 17.0 °F 19.4 °F 86% 29.81 in 6.0 mi Variable 4.6 mph 20.7 mph 0.00 in Snow Light Snow
1:24 PM 21.2 °F 10.1 °F 19.4 °F 93% 29.81 in 6.0 mi WSW 10.4 mph 17.3 mph 0.00 in Snow Light Snow
1:53 PM 21.9 °F 11.0 °F 19.0 °F 89% 29.92 in 3.0 mi WSW 10.4 mph 21.9 mph 0.00 in Snow Light Snow
2:16 PM 21.2 °F 14.9 °F 19.4 °F 93% 29.82 in 2.5 mi Variable 4.6 mph - 0.00 in Snow Light Snow
2:36 PM 21.2 °F 13.6 °F 19.4 °F 93% 29.82 in 4.0 mi Variable 5.8 mph - 0.01 in Snow Light Snow
2:43 PM 21.2 °F 12.6 °F 19.4 °F 93% 29.81 in 3.0 mi Variable 6.9 mph - 0.01 in Snow Light Snow
2:50 PM 21.2 °F 11.7 °F 19.4 °F 93% 29.81 in 2.0 mi SW 8.1 mph 17.3 mph 0.01 in Snow Light Snow
3:03 PM 23.0 °F 15.8 °F 21.2 °F 93% 29.81 in 1.5 mi Variable 5.8 mph - 0.00 in Snow Light Snow
3:10 PM 23.0 °F 15.8 °F 19.4 °F 86% 29.81 in 0.8 mi Variable 5.8 mph - 0.00 in Snow Light Snow
3:23 PM 21.2 °F 11.7 °F 19.4 °F 93% 29.81 in 1.0 mi SW 8.1 mph - 0.01 in Snow Light Snow
3:35 PM 21.2 °F 10.9 °F 19.4 °F 93% 29.81 in 1.5 mi SW 9.2 mph 18.4 mph 0.01 in Snow Light Snow
3:49 PM 21.2 °F 10.9 °F 19.4 °F 93% 29.81 in 3.0 mi WSW 9.2 mph 21.9 mph 0.01 in Snow Light Snow
3:50 PM 21.0 °F 10.6 °F 19.0 °F 92% 29.94 in 3.0 mi SW 9.2 mph 21.9 mph 0.01 in Snow Light Snow
4:16 PM 21.2 °F 10.1 °F 17.6 °F 86% 29.81 in 3.0 mi SW 10.4 mph 21.9 mph 0.01 in Snow Light Snow
4:19 PM 21.2 °F 12.6 °F 17.6 °F 86% 29.81 in 2.0 mi Variable 6.9 mph 21.9 mph 0.01 in Snow Light Snow
4:23 PM 21.2 °F 13.6 °F 19.4 °F 93% 29.81 in 1.8 mi Variable 5.8 mph 21.9 mph 0.01 in Snow Light Snow
4:32 PM 21.2 °F 12.6 °F 19.4 °F 93% 29.81 in 1.0 mi Variable 6.9 mph 17.3 mph 0.01 in Snow Light Snow
4:40 PM 21.2 °F 10.9 °F 17.6 °F 86% 29.81 in 2.0 mi SSW 9.2 mph 19.6 mph 0.01 in Snow Light Snow
4:47 PM 21.2 °F 11.7 °F 19.4 °F 93% 29.81 in 1.2 mi SW 8.1 mph 19.6 mph 0.01 in Snow Light Snow
4:53 PM 21.0 °F 12.4 °F 19.0 °F 92% 29.95 in 0.5 mi Variable 6.9 mph 18.4 mph 0.02 in Fog , Snow Snow
5:02 PM 21.2 °F 12.6 °F 19.4 °F 93% 29.81 in 0.2 mi Variable 6.9 mph - 0.00 in Fog , Snow Snow
5:12 PM 19.4 °F 11.5 °F 19.4 °F 100% 29.81 in 0.8 mi Variable 5.8 mph - 0.00 in Snow Light Snow
5:29 PM 19.4 °F 12.8 °F 17.6 °F 93% 29.81 in 1.0 mi Variable 4.6 mph - 0.01 in Snow Light Snow
5:41 PM 19.4 °F 11.5 °F 17.6 °F 93% 29.82 in 1.0 mi Variable 5.8 mph - 0.01 in Snow Light Snow
5:51 PM 19.4 °F 11.5 °F 17.6 °F 93% 29.82 in 1.5 mi SSW 5.8 mph - 0.01 in Snow Light Snow
5:52 PM 19.9 °F 11.1 °F 19.0 °F 96% 29.96 in 1.2 mi Variable 6.9 mph - 0.01 in Snow Light Snow
6:02 PM 19.4 °F 10.4 °F 17.6 °F 93% 29.82 in 0.8 mi Variable 6.9 mph - 0.01 in Snow Light Snow
6:07 PM 19.4 °F 10.4 °F 17.6 °F 93% 29.82 in 1.5 mi Variable 6.9 mph - 0.01 in Snow Light Snow
6:15 PM 19.4 °F 10.4 °F 17.6 °F 93% 29.81 in 2.5 mi Variable 6.9 mph 16.1 mph 0.01 in Snow Light Snow
6:35 PM 19.4 °F 9.5 °F 17.6 °F 93% 29.81 in 3.0 mi SW 8.1 mph 18.4 mph 0.01 in Snow Light Snow
6:47 PM 19.4 °F 9.5 °F 17.6 °F 93% 29.81 in 1.8 mi SW 8.1 mph 23.0 mph 0.01 in Snow Light Snow
6:53 PM 19.9 °F 12.1 °F 18.0 °F 92% 29.95 in 1.2 mi WSW 5.8 mph - 0.01 in Snow Light Snow
7:04 PM 19.4 °F 14.3 °F 17.6 °F 93% 29.81 in 1.0 mi Variable 3.5 mph - 0.00 in Snow Light Snow
7:24 PM 19.4 °F 14.3 °F 17.6 °F 93% 29.80 in 2.0 mi Variable 3.5 mph 19.6 mph 0.01 in Snow Light Snow
7:31 PM 19.4 °F 10.4 °F 17.6 °F 93% 29.80 in 1.2 mi Variable 6.9 mph - 0.01 in Snow Light Snow
7:53 PM 19.9 °F 11.1 °F 18.0 °F 92% 29.95 in 1.2 mi Variable 6.9 mph - 0.01 in Snow Light Snow
8:53 PM 19.9 °F 12.1 °F 18.0 °F 92% 29.94 in 1.5 mi Variable 5.8 mph - 0.02 in Snow Light Snow
9:14 PM 19.4 °F 12.8 °F 17.6 °F 93% 29.79 in 1.2 mi Variable 4.6 mph - 0.00 in Snow Light Snow
9:21 PM 19.4 °F 10.4 °F 17.6 °F 93% 29.79 in 2.0 mi Variable 6.9 mph 20.7 mph 0.00 in Snow Light Snow
9:40 PM 19.4 °F 12.8 °F 17.6 °F 93% 29.79 in 1.2 mi Variable 4.6 mph - 0.00 in Snow Light Snow
9:48 PM 19.4 °F 12.8 °F 17.6 °F 93% 29.78 in 1.8 mi Variable 4.6 mph - 0.00 in Snow Light Snow
9:53 PM 19.9 °F 11.1 °F 18.0 °F 92% 29.93 in 1.8 mi Variable 6.9 mph - 0.00 in Snow Light Snow
10:16 PM 19.4 °F 14.3 °F 17.6 °F 93% 29.78 in 0.8 mi Variable 3.5 mph - 0.01 in Snow Light Snow
10:26 PM 19.4 °F 12.8 °F 17.6 °F 93% 29.78 in 1.5 mi Variable 4.6 mph - 0.01 in Snow Light Snow
10:32 PM 19.4 °F 9.5 °F 17.6 °F 93% 29.78 in 3.0 mi SSW 8.1 mph - 0.01 in Snow Light Snow
10:48 PM 19.4 °F 12.8 °F 17.6 °F 93% 29.77 in 1.8 mi Variable 4.6 mph - 0.01 in Snow Light Snow
10:53 PM 19.9 °F 10.1 °F 18.0 °F 92% 29.92 in 1.0 mi SW 8.1 mph - 0.02 in Snow Light Snow
11:53 PM 19.9 °F 11.1 °F 18.0 °F 92% 29.89 in 1.0 mi Variable 6.9 mph - 0.01 in Snow Light Snow